ONEWEB-0034 (45454 NORAD) Tracking and Keplerian Element Data

This shows tracking and keplerian element data for the satellite.

Feedback or suggestion? Click here.




ElementValue
Catalog45454
NameONEWEB-0034
Epoch Orbit3211
Epoch Day297.91667824
Epoch Year2020
RAAN71.7088
Inclination87.7986
Eccentricity0.002304
Argument of Perigee250.8379
Mean Anonmoly114.7457
Mean Motion13.95745257
Decay Rate-0.00018934
L11 45454U 20020AG 20297.91667824 -.00018934 00000-0 -13915-1 0 9996
L22 45454 87.7986 71.7088 0023040 250.8379 114.7457 13.95745257 32117

Live tracking and technical data element details for ONEWEB-0034 (NORAD 45454). ONEWEB-0034 can be tracked NOW for your location showing map with azimuth and elevation plus other details from your city location.

Track the satellite on the map from your city or location and see movement details for azimuth, elevation, latitude, longitude, range, height, and movement on the map or in text.







IsCatalogInMostPopularTable: catalog: 45454, numindb: 49
Update: records affected: 1



GetName: 45454 ONEWEB-0034

Hit Count: updated at: Sat, 24 Oct 2020 23:04:34 GMT